South Haven, MI

6:21 PM EDT on March 29, 2017 (GMT -0400)
South Haven

Weather History for KLWA - November, 2011

Change the Weather History Date:

Wednesday, November 9, 2011

  Actual Average (KBEH) Record (KBEH)
Temperature  
Mean Temperature 50 °F -  
Max Temperature 60 °F 52 °F 72 °F (1999)
Min Temperature 39 °F 34 °F 13 °F (1991)
Degree Days  
Heating Degree Days 16    
Moisture  
Dew Point 47 °F    
Average Humidity 88    
Maximum Humidity 100    
Minimum Humidity 59    
Precipitation  
Precipitation 0.00 in - - ()
Sea Level Pressure  
Sea Level Pressure 29.70 in    
Wind  
Wind Speed 10 mph (South)    
Max Wind Speed 26 mph    
Max Gust Speed 40 mph    
Visibility 7 miles    
Events Rain    
Averages and records for this station are not official NWS values.
T = Trace of Precipitation, MM = Missing Value Source: NWS Daily Summary

Daily Weather History Graph

Daily Weather History Graph

Search for Another Location

Airport or City:

Trip Planner

Search our weather history database for the weather conditions in past years. The results will help you decide how hot, cold, wet, or windy it might be!

Date:

Astronomy

Nov. 09, 2011 Rise Set
Actual Time 7:27 AM EST 5:29 PM EST
Civil Twilight 6:58 AM EST 5:58 PM EST
Nautical Twilight 6:24 AM EST 6:32 PM EST
Astronomical Twilight 5:51 AM EST 7:05 PM EST
Moon 4:40 PM EST (11/9) 6:22 AM EST (11/9)
Length of Visible Light 11h 00m
Length of Day
10h 01m
Waxing Gibbous, 99% of the Moon is Illuminated
Nov 9
Waxing Gibbous
Nov 10
Full
Nov 18
Last Quarter
Nov 25
New
Dec 2
First Quarter

Hourly Weather History & Observations

Time (EST) Temp. Windchill Dew Point Humidity Pressure Visibility Wind Dir Wind Speed Gust Speed Precip Events Conditions
12:35 AM 50.0 °F - 50.0 °F 100% 29.91 in 4.0 mi East 5.8 mph - N/A Rain Rain
12:55 AM 50.0 °F - 50.0 °F 100% 29.90 in 4.0 mi East 4.6 mph - N/A Rain Rain
1:16 AM 50.0 °F - 50.0 °F 100% 29.89 in 4.0 mi East 3.5 mph - N/A Rain Rain
1:35 AM 51.8 °F - 50.0 °F 94% 29.88 in 3.0 mi ENE 3.5 mph - N/A   Light Drizzle
1:55 AM 51.8 °F - 50.0 °F 94% 29.88 in 3.0 mi East 3.5 mph - N/A   Overcast
2:15 AM 51.8 °F - 50.0 °F 94% 29.86 in 3.0 mi East 5.8 mph - N/A   Overcast
2:54 AM 51.8 °F - 51.8 °F 100% 29.84 in 3.0 mi East 8.1 mph - N/A   Overcast
3:15 AM 53.6 °F - 51.8 °F 94% 29.83 in 3.0 mi East 5.8 mph - N/A   Overcast
3:35 AM 53.6 °F - 51.8 °F 94% 29.82 in 3.0 mi ESE 6.9 mph - N/A Rain Light Rain
3:55 AM 53.6 °F - 53.6 °F 100% 29.81 in 4.0 mi ESE 5.8 mph - N/A   Overcast
4:15 AM 55.4 °F - 53.6 °F 94% 29.81 in 10.0 mi SSE 4.6 mph - N/A   Overcast
4:35 AM 55.4 °F - 53.6 °F 94% 29.80 in 10.0 mi SSE 5.8 mph - N/A   Overcast
4:55 AM 55.4 °F - 53.6 °F 94% 29.79 in 10.0 mi SSE 6.9 mph - N/A   Overcast
5:15 AM 57.2 °F - 53.6 °F 88% 29.79 in 10.0 mi South 6.9 mph - N/A   Overcast
5:34 AM 57.2 °F - 53.6 °F 88% 29.78 in 10.0 mi SE 6.9 mph - N/A   Overcast
5:55 AM 55.4 °F - 53.6 °F 94% 29.76 in 10.0 mi SE 8.1 mph - N/A   Overcast
6:15 AM 55.4 °F - 53.6 °F 94% 29.74 in 10.0 mi SE 5.8 mph - N/A Rain Light Rain
6:35 AM 55.4 °F - 53.6 °F 94% 29.73 in 10.0 mi SE 5.8 mph - N/A Rain Light Rain
6:55 AM 55.4 °F - 53.6 °F 94% 29.71 in 10.0 mi ESE 6.9 mph - N/A Rain Light Rain
7:15 AM 55.4 °F - 53.6 °F 94% 29.69 in 10.0 mi ESE 6.9 mph - N/A   Overcast
7:35 AM 55.4 °F - 53.6 °F 94% 29.68 in 10.0 mi ESE 10.4 mph - N/A   Overcast
7:55 AM 55.4 °F - 53.6 °F 94% 29.68 in 10.0 mi SE 12.7 mph 17.3 mph N/A   Overcast
8:14 AM 55.4 °F - 53.6 °F 94% 29.67 in 10.0 mi SE 9.2 mph - N/A   Overcast
8:35 AM 55.4 °F - 53.6 °F 94% 29.64 in 7.0 mi ESE 11.5 mph - N/A   Drizzle
9:15 AM 55.4 °F - 53.6 °F 94% 29.62 in 2.5 mi SSE 10.4 mph 17.3 mph N/A Rain Heavy Rain
9:35 AM 55.4 °F - 53.6 °F 94% 29.61 in 3.0 mi SE 10.4 mph 18.4 mph N/A Rain Rain
9:55 AM 55.4 °F - 53.6 °F 94% 29.60 in 10.0 mi SE 9.2 mph 19.6 mph N/A Rain Rain
10:15 AM 55.4 °F - 53.6 °F 94% 29.58 in 7.0 mi SSE 11.5 mph 16.1 mph N/A Rain Rain
10:35 AM 55.4 °F - 53.6 °F 94% 29.57 in 5.0 mi South 10.4 mph 18.4 mph N/A Rain Light Rain
10:55 AM 55.4 °F - 53.6 °F 94% 29.57 in 4.0 mi South 13.8 mph 20.7 mph N/A Rain Light Rain
11:34 AM 59.0 °F - 55.4 °F 88% 29.54 in 10.0 mi South 12.7 mph 19.6 mph N/A   Overcast
11:55 AM 60.8 °F - 55.4 °F 82% 29.53 in 10.0 mi South 18.4 mph 27.6 mph N/A   Mostly Cloudy
12:15 PM 60.8 °F - 53.6 °F 77% 29.52 in 10.0 mi SSW 20.7 mph 29.9 mph N/A   Mostly Cloudy
12:35 PM 60.8 °F - 48.2 °F 63% 29.52 in 10.0 mi SSW 25.3 mph 38.0 mph N/A   Mostly Cloudy
12:55 PM 60.8 °F - 46.4 °F 59% 29.52 in 10.0 mi South 21.9 mph 32.2 mph N/A   Mostly Cloudy
1:15 PM 57.2 °F - 44.6 °F 63% 29.52 in 10.0 mi SSW 26.5 mph 38.0 mph N/A   Overcast
1:35 PM 55.4 °F - 44.6 °F 67% 29.53 in 10.0 mi SSW 19.6 mph 38.0 mph N/A   Overcast
2:15 PM 50.0 °F - 42.8 °F 76% 29.55 in 10.0 mi SSW 24.2 mph 31.1 mph N/A   Overcast
2:35 PM 50.0 °F - 41.0 °F 71% 29.55 in 10.0 mi SSW 20.7 mph 28.8 mph N/A   Overcast
2:55 PM 48.2 °F - 41.0 °F 76% 29.55 in 10.0 mi SSW 21.9 mph 34.5 mph N/A   Overcast
3:15 PM 46.4 °F 39.0 °F 37.4 °F 71% 29.56 in 10.0 mi SW 19.6 mph 40.3 mph N/A   Overcast
3:35 PM 46.4 °F 38.3 °F 37.4 °F 71% 29.57 in 10.0 mi SSW 23.0 mph 36.8 mph N/A   Overcast
3:54 PM 44.6 °F 35.3 °F 41.0 °F 87% 29.59 in 3.0 mi SW 26.5 mph 40.3 mph N/A   Drizzle
4:15 PM 42.8 °F 33.5 °F 41.0 °F 93% 29.61 in 1.2 mi WSW 23.0 mph 33.4 mph N/A Rain Light Rain
4:35 PM 42.8 °F 32.9 °F 39.2 °F 87% 29.62 in 2.0 mi WSW 26.5 mph 35.7 mph N/A   Drizzle
4:54 PM 41.0 °F 31.4 °F 37.4 °F 87% 29.64 in 3.0 mi WSW 21.9 mph 31.1 mph N/A Rain Rain
5:15 PM 41.0 °F 33.1 °F 37.4 °F 87% 29.67 in 1.8 mi West 15.0 mph 32.2 mph N/A Rain Light Rain
5:34 PM 39.2 °F 30.5 °F 37.4 °F 93% 29.69 in 3.0 mi West 16.1 mph 28.8 mph N/A Rain Light Rain
6:15 PM 41.0 °F 31.4 °F 35.6 °F 81% 29.73 in 7.0 mi West 21.9 mph 35.7 mph N/A   Overcast
6:55 PM 41.0 °F 31.1 °F 37.4 °F 87% 29.77 in 5.0 mi West 23.0 mph 32.2 mph N/A   Overcast
7:15 PM 39.2 °F 29.0 °F 35.6 °F 87% 29.78 in 10.0 mi West 21.9 mph 34.5 mph N/A   Overcast
7:34 PM 41.0 °F 31.1 °F 35.6 °F 81% 29.80 in 10.0 mi West 23.0 mph 38.0 mph N/A   Overcast
8:15 PM 39.2 °F 29.3 °F 35.6 °F 87% 29.83 in 10.0 mi WNW 20.7 mph 29.9 mph N/A Rain Light Rain
8:34 PM 41.0 °F 32.2 °F 33.8 °F 76% 29.84 in 10.0 mi WNW 18.4 mph 36.8 mph N/A   Overcast
9:14 PM 39.2 °F 29.3 °F 35.6 °F 87% 29.86 in 7.0 mi WNW 20.7 mph 27.6 mph N/A Rain Light Rain
9:35 PM 41.0 °F 33.1 °F 35.6 °F 81% 29.87 in 5.0 mi WNW 15.0 mph 26.5 mph N/A Rain Light Rain
9:54 PM 41.0 °F 32.5 °F 33.8 °F 76% 29.88 in 7.0 mi WNW 17.3 mph 34.5 mph N/A Rain Light Rain
10:15 PM 41.0 °F 33.1 °F 35.6 °F 81% 29.89 in 10.0 mi WNW 15.0 mph 28.8 mph N/A   Light Drizzle
10:35 PM 41.0 °F 32.2 °F 35.6 °F 81% 29.89 in 10.0 mi WNW 18.4 mph 28.8 mph N/A   Overcast
10:54 PM 41.0 °F 31.9 °F 33.8 °F 76% 29.89 in 10.0 mi WNW 19.6 mph 32.2 mph N/A   Overcast
11:15 PM 41.0 °F 32.2 °F 33.8 °F 76% 29.90 in 10.0 mi WNW 18.4 mph 29.9 mph N/A Rain Light Rain
11:35 PM 41.0 °F 31.9 °F 33.8 °F 76% 29.90 in 10.0 mi WNW 19.6 mph 28.8 mph N/A   Overcast
11:54 PM 42.8 °F 35.8 °F 33.8 °F 70% 29.90 in 10.0 mi WNW 13.8 mph 24.2 mph N/A   Overcast